User: anonymous   Login
Location: Équennes
(49.7375°N, 1.9622°E)
Time: 22:18:55
(UTC+00:00)
Language:

Cosmos 1023 Rocket - Orbit

View from above orbital plane
View from above orbital plane
View from above satellite
View from above satellite

Ground track
Ground track

The orbit data is extracted from the following two-line orbital elements,

1 10962U 78063B   23151.45150918  .00000125  00000-0  46502-4 0  9996
2 10962  74.0772 164.1902 0026070 228.9596 130.9307 14.41595354359108
Epoch (UTC): 31 May 2023 10:50:10
Eccentricity: 0.0026070
inclination: 74.0772°
perigee height: 734 km
apogee height: 772 km
right ascension of ascending node: 164.1902°
argument of perigee: 228.9596°
revolutions per day: 14.41595354
mean anomaly at epoch: 130.9307°
orbit number at epoch: 35910

The dashed part of the orbit path shows where the satellite is in the earth's shadow,  

DLR